Fort Madison, IA

12:43 AM CDT on May 30, 2017 (GMT -0500)
Fort Madison Municipal

Weather History for KFSW - February, 2013

Change the Weather History Date:

Thursday, February 21, 2013

  Actual Average Record
Temperature  
Mean Temperature 22 °F -  
Max Temperature 28 °F 41 °F 64 °F (1983)
Min Temperature 17 °F 23 °F -5 °F (1963)
Degree Days  
Heating Degree Days 44    
Moisture  
Dew Point 18 °F    
Average Humidity 81    
Maximum Humidity 93    
Minimum Humidity 68    
Precipitation  
Precipitation 0.00 in - - ()
Sea Level Pressure  
Sea Level Pressure 30.12 in    
Wind  
Wind Speed 10 mph (East)    
Max Wind Speed 18 mph    
Max Gust Speed 28 mph    
Visibility 6 miles    
Events Snow    
Averages and records for this station are not official NWS values.
T = Trace of Precipitation, MM = Missing Value Source: NWS Daily Summary

Daily Weather History Graph

Daily Weather History Graph

Search for Another Location

Airport or City:

Trip Planner

Search our weather history database for the weather conditions in past years. The results will help you decide how hot, cold, wet, or windy it might be!

Date:

Astronomy

Feb. 21, 2013 Rise Set
Actual Time 6:50 AM CST 5:47 PM CST
Civil Twilight 6:22 AM CST 6:15 PM CST
Nautical Twilight 5:51 AM CST 6:47 PM CST
Astronomical Twilight 5:19 AM CST 7:19 PM CST
Moon 2:02 PM CST (2/21) 3:56 AM CST (2/21)
Length of Visible Light 11h 52m
Length of Day
10h 57m
Waxing Gibbous, 84% of the Moon is Illuminated
Feb 21
Waxing Gibbous
Feb 25
Full
Mar 4
Last Quarter
Mar 11
New
Mar 19
First Quarter

Hourly Weather History & Observations

Time (CST) Temp. Windchill Dew Point Humidity Pressure Visibility Wind Dir Wind Speed Gust Speed Precip Events Conditions
12:15 AM 19.4 °F 9.5 °F 12.2 °F 74% 30.33 in 10.0 mi East 8.1 mph - N/A   Overcast
12:35 AM 19.4 °F 7.9 °F 12.2 °F 74% 30.33 in 10.0 mi East 10.4 mph - N/A   Overcast
12:55 AM 19.4 °F 12.8 °F 12.2 °F 74% 30.34 in 10.0 mi East 4.6 mph - N/A   Scattered Clouds
1:15 AM 19.4 °F 10.4 °F 12.2 °F 74% 30.34 in 10.0 mi East 6.9 mph - N/A   Clear
1:35 AM 19.4 °F 11.5 °F 10.4 °F 68% 30.34 in 10.0 mi East 5.8 mph - N/A   Clear
1:55 AM 17.6 °F 8.2 °F 10.4 °F 73% 30.34 in 10.0 mi ENE 6.9 mph - N/A   Clear
2:15 AM 17.6 °F 12.3 °F 10.4 °F 73% 30.34 in 10.0 mi ENE 3.5 mph - N/A   Clear
2:35 AM 17.6 °F 12.3 °F 12.2 °F 79% 30.34 in 10.0 mi East 3.5 mph - N/A   Clear
2:55 AM 17.6 °F 12.3 °F 12.2 °F 79% 30.34 in 10.0 mi East 3.5 mph - N/A   Clear
3:15 AM 17.6 °F 9.3 °F 12.2 °F 79% 30.31 in 10.0 mi ENE 5.8 mph - N/A   Clear
3:35 AM 17.6 °F 10.7 °F 12.2 °F 79% 30.30 in 10.0 mi East 4.6 mph - N/A   Clear
3:55 AM 17.6 °F 8.2 °F 12.2 °F 79% 30.27 in 10.0 mi ENE 6.9 mph - N/A   Clear
4:15 AM 17.6 °F 6.4 °F 12.2 °F 79% 30.27 in 10.0 mi ENE 9.2 mph - N/A   Clear
4:35 AM 17.6 °F 7.3 °F 12.2 °F 79% 30.27 in 10.0 mi East 8.1 mph - N/A   Clear
4:55 AM 17.6 °F 8.2 °F 12.2 °F 79% 30.30 in 10.0 mi East 6.9 mph - N/A   Clear
5:15 AM 17.6 °F 8.2 °F 12.2 °F 79% 30.31 in 10.0 mi East 6.9 mph - N/A   Clear
6:15 AM 17.6 °F 6.4 °F 12.2 °F 79% 30.27 in 10.0 mi East 9.2 mph 17.3 mph N/A   Clear
6:35 AM 17.6 °F 5.7 °F 12.2 °F 79% 30.27 in 10.0 mi East 10.4 mph - N/A   Clear
6:55 AM 17.6 °F 6.4 °F 12.2 °F 79% 30.27 in 10.0 mi ENE 9.2 mph - N/A   Clear
7:15 AM 17.6 °F 6.4 °F 12.2 °F 79% 30.27 in 10.0 mi ENE 9.2 mph - N/A   Clear
7:35 AM 19.4 °F 7.9 °F 12.2 °F 74% 30.25 in 10.0 mi East 10.4 mph 17.3 mph N/A   Clear
7:55 AM 19.4 °F 7.9 °F 12.2 °F 74% 30.28 in 10.0 mi East 10.4 mph - N/A   Clear
8:15 AM 19.4 °F 8.6 °F 14.0 °F 80% 30.26 in 10.0 mi East 9.2 mph - N/A   Clear
8:35 AM 21.2 °F 10.1 °F 14.0 °F 74% 30.28 in 10.0 mi East 10.4 mph - N/A   Clear
8:55 AM 21.2 °F 8.9 °F 14.0 °F 74% 30.25 in 10.0 mi East 12.7 mph 18.4 mph N/A   Clear
9:15 AM 21.2 °F 8.3 °F 14.0 °F 74% 30.26 in 10.0 mi East 13.8 mph 20.7 mph N/A   Clear
9:35 AM 21.2 °F 8.3 °F 14.0 °F 74% 30.25 in 10.0 mi East 13.8 mph 20.7 mph N/A   Clear
9:55 AM 21.2 °F 7.3 °F 15.8 °F 80% 30.23 in 10.0 mi East 16.1 mph 21.9 mph N/A   Clear
10:15 AM 21.2 °F 8.9 °F 15.8 °F 80% 30.22 in 10.0 mi East 12.7 mph 20.7 mph N/A   Clear
10:35 AM 21.2 °F 8.9 °F 15.8 °F 80% 30.22 in 10.0 mi East 12.7 mph 19.6 mph N/A   Clear
10:55 AM 23.0 °F 9.6 °F 15.8 °F 74% 30.21 in 10.0 mi East 16.1 mph 20.7 mph N/A   Scattered Clouds
11:15 AM 24.8 °F 15.3 °F 17.6 °F 74% 30.21 in 10.0 mi East 9.2 mph - N/A   Scattered Clouds
11:35 AM 24.8 °F 12.4 °F 15.8 °F 69% 30.21 in 10.0 mi East 15.0 mph 18.4 mph N/A   Mostly Cloudy
11:55 AM 24.8 °F 14.6 °F 17.6 °F 74% 30.20 in 10.0 mi East 10.4 mph 18.4 mph N/A   Overcast
12:15 PM 24.8 °F 12.9 °F 17.6 °F 74% 30.17 in 10.0 mi East 13.8 mph 19.6 mph N/A   Overcast
12:35 PM 24.8 °F 14.6 °F 17.6 °F 74% 30.16 in 10.0 mi East 10.4 mph 15.0 mph N/A   Overcast
12:55 PM 26.6 °F 15.2 °F 17.6 °F 69% 30.15 in 10.0 mi East 13.8 mph 21.9 mph N/A   Overcast
1:15 PM 26.6 °F 15.7 °F 17.6 °F 69% 30.15 in 10.0 mi East 12.7 mph 18.4 mph N/A   Mostly Cloudy
1:35 PM 26.6 °F 16.2 °F 19.4 °F 74% 30.12 in 10.0 mi East 11.5 mph 19.6 mph N/A   Overcast
1:55 PM 24.8 °F 14.0 °F 19.4 °F 80% 30.10 in 0.8 mi East 11.5 mph 18.4 mph N/A Snow Light Snow
2:15 PM 26.6 °F 16.8 °F 21.2 °F 80% 30.10 in 0.8 mi East 10.4 mph - N/A Snow Light Snow
2:35 PM 26.6 °F 16.8 °F 21.2 °F 80% 30.09 in 0.5 mi East 10.4 mph - N/A Snow Light Snow
2:55 PM 26.6 °F 14.7 °F 21.2 °F 80% 30.06 in 0.2 mi East 15.0 mph 23.0 mph N/A Snow Snow
3:15 PM 26.6 °F 14.3 °F 21.2 °F 80% 30.04 in 0.2 mi East 16.1 mph 24.2 mph N/A Snow Snow
3:35 PM 26.6 °F 14.7 °F 21.2 °F 80% 30.04 in 0.5 mi East 15.0 mph 20.7 mph N/A Snow Snow
3:55 PM 26.6 °F 14.7 °F 23.0 °F 86% 30.01 in 0.5 mi East 15.0 mph 21.9 mph N/A Snow Light Snow
4:15 PM 26.6 °F 13.4 °F 23.0 °F 86% 29.98 in 0.5 mi East 18.4 mph 21.9 mph N/A Snow Snow
4:35 PM 26.6 °F 13.4 °F 23.0 °F 86% 29.97 in 1.0 mi East 18.4 mph 21.9 mph N/A Snow Light Snow
4:55 PM 26.6 °F 13.8 °F 23.0 °F 86% 29.96 in 1.0 mi East 17.3 mph 25.3 mph N/A Snow Light Snow
5:15 PM 26.6 °F 14.3 °F 23.0 °F 86% 29.95 in 0.8 mi East 16.1 mph 27.6 mph N/A Snow Light Snow
5:35 PM 26.6 °F 13.4 °F 23.0 °F 86% 29.93 in 0.2 mi East 18.4 mph 25.3 mph N/A Snow Snow
5:55 PM 26.6 °F 14.3 °F 24.8 °F 93% 29.92 in 1.0 mi ENE 16.1 mph 24.2 mph N/A Snow Snow
6:15 PM 26.6 °F 14.7 °F 24.8 °F 93% 29.92 in 1.0 mi East 15.0 mph 24.2 mph N/A Snow Light Snow
6:35 PM 26.6 °F 15.2 °F 24.8 °F 93% 29.92 in 1.2 mi East 13.8 mph - N/A Snow Light Snow
6:55 PM 26.6 °F 14.7 °F 24.8 °F 93% 29.90 in 1.2 mi East 15.0 mph 21.9 mph N/A Snow Light Snow
7:15 PM 26.6 °F 15.2 °F 24.8 °F 93% 29.90 in 1.5 mi East 13.8 mph 19.6 mph N/A Snow Light Snow
7:35 PM 26.6 °F 13.8 °F 24.8 °F 93% 29.89 in 0.8 mi East 17.3 mph 21.9 mph N/A Snow Snow
7:55 PM 26.6 °F 14.3 °F 23.0 °F 86% 29.89 in 0.8 mi East 16.1 mph 19.6 mph N/A Snow Light Snow
8:15 PM 26.6 °F 14.7 °F 23.0 °F 86% 29.89 in 1.0 mi East 15.0 mph 18.4 mph N/A Snow Light Snow
8:35 PM 26.6 °F 16.2 °F 23.0 °F 86% 29.88 in 1.0 mi East 11.5 mph 18.4 mph N/A Snow Light Snow
8:55 PM 26.6 °F 14.7 °F 23.0 °F 86% 29.88 in 1.0 mi East 15.0 mph 19.6 mph N/A Snow Light Snow
9:15 PM 26.6 °F 15.2 °F 23.0 °F 86% 29.88 in 1.0 mi East 13.8 mph - N/A Snow Light Snow
9:35 PM 26.6 °F 16.2 °F 23.0 °F 86% 29.87 in 1.0 mi East 11.5 mph - N/A Snow Snow
9:55 PM 26.6 °F 16.8 °F 23.0 °F 86% 29.87 in 1.0 mi East 10.4 mph - N/A Snow Light Snow
10:15 PM 26.6 °F 17.5 °F 23.0 °F 86% 29.86 in 0.8 mi East 9.2 mph - N/A Snow Snow
10:35 PM 26.6 °F 17.5 °F 24.8 °F 93% 29.86 in 1.0 mi East 9.2 mph - N/A Snow Light Snow
10:55 PM 26.6 °F 18.2 °F 24.8 °F 93% 29.85 in 1.5 mi East 8.1 mph - N/A Snow Light Snow
11:15 PM 26.6 °F 17.5 °F 24.8 °F 93% 29.84 in 1.2 mi East 9.2 mph - N/A Snow Light Snow
11:35 PM 26.6 °F 17.5 °F 24.8 °F 93% 29.84 in 2.0 mi East 9.2 mph - N/A Snow Light Snow
11:55 PM 28.4 °F 19.7 °F 24.8 °F 86% 29.83 in 1.5 mi East 9.2 mph - N/A Snow Light Snow